Location: Newark
(10.7761°N, 106.6983°E)
Time: 18:44:40
(UTC+00:00)

ISS - Visible Passes

Search period start: 19 July 2019 00:00
Search period end: 29 July 2019 00:00
Orbit: 409 x 418 km, 51.6° (Epoch: 20 July)

Date Brightness Start Highest point End Pass type
(mag) Time Alt. Az. Time Alt. Az. Time Alt. Az.
19 Jul -0.2 20:40:33 10° NE 20:41:14 10° NE 20:41:55 10° ENE visible
19 Jul -2.8 22:15:00 10° WNW 22:17:48 26° SW 22:20:36 10° S visible
20 Jul -4.0 21:26:25 20° NW 21:28:34 68° SW 21:31:50 10° SSE visible
